Stations météo

réclame
Mon MeteoGroup
Le Touquet, France (7003): Température de l'air & dewpoint: 10.08.2018 21:00:00 - 16.08.2018 21:00:00 (CEST)Le Touquet, France (7003): Température de l'air 5cm: 10.08.2018 21:00:00 - 16.08.2018 21:00:00 (CEST)Le Touquet, France (7003): Vitesse du vent & gusts: 10.08.2018 21:00:00 - 16.08.2018 21:00:00 (CEST)Le Touquet, France (7003): Direction du vent: 10.08.2018 21:00:00 - 16.08.2018 21:00:00 (CEST)Le Touquet, France (7003): reduced air pressure: 10.08.2018 21:00:00 - 16.08.2018 21:00:00 (CEST)Le Touquet, France (7003): visibility: 10.08.2018 21:00:00 - 16.08.2018 21:00:00 (CEST)Le Touquet, France (7003): Ensoleillement: 10.08.2018 21:00:00 - 16.08.2018 21:00:00 (CEST)Le Touquet, France (7003): Quantités de précipitations: 10.08.2018 21:00:00 - 16.08.2018 21:00:00 (CEST)
Date & Time tt [°C] td [°C] tt 5cm [°C] ff [km/h] ff [knt] fx [km/h] fx [knt] dd ppp [hPa] vv [km] sd [min] rr [mm]
16.08.2018 21:00:00 17,4 16,1 16,7 17 9 29 16 NW 1015,8 19 0 0,0
16.08.2018 20:00:00 17,7 15,9 17,5 14 7 29 16 NW 1015,4 20 0 0,0
16.08.2018 19:00:00 19,0 16,4 19,6 17 9 29 16 W 1015,5 55 0 0,0
16.08.2018 18:00:00 19,6 16,6 22,2 10 5 26 14 W 1015,4 49 0 0,0
16.08.2018 17:00:00 20,4 15,8 24,0 16 9 39 21 W 1015,5 40 40 0,0
16.08.2018 16:00:00 21,2 16,4 25,0 22 12 37 20 W 1015,7 44 36 0,0
16.08.2018 15:00:00 20,8 15,8 23,8 17 9 34 19 W 1015,7 42 3 0,0
16.08.2018 14:00:00 21,7 16,4 24,9 18 10 34 19 WSW 1015,4 56 31 0,0
16.08.2018 13:00:00 22,2 15,8 26,3 19 10 33 18 SW 1015,2 37 51 0,0
16.08.2018 12:00:00 22,1 15,7 23,9 16 9 29 16 SSW 1015,3 40 31 0,0
16.08.2018 11:00:00 20,7 16,5 21,7 16 8 29 16 SW 1015,4 47 6 0,0
16.08.2018 10:00:00 19,8 16,4 20,5 15 8 23 13 SW 1015,8 53 3 0,0
16.08.2018 09:00:00 19,3 16,3 18,5 9 5 18 10 SW 1016,0 54 0 0,0
16.08.2018 08:00:00 18,6 16,2 17,8 8 4 18 10 SW 1016,2 57 0 0,0
16.08.2018 07:00:00 18,2 15,6 17,8 10 5 24 13 WSW 1016,4 57 0 0,0
16.08.2018 06:00:00 18,4 15,3 17,0 15 8 29 16 W 1016,7 60 0 0,0
16.08.2018 05:00:00 18,1 15,2 16,7 14 7 26 14 WSW 1016,9 60 0 0,0
16.08.2018 04:00:00 18,3 15,5 16,7 14 8 29 16 WSW 1017,1 60 0 0,0
16.08.2018 03:00:00 18,0 15,4 16,4 11 6 24 13 WSW 1017,6 59 0 0,0
16.08.2018 02:00:00 18,1 14,6 16,0 11 6 19 11 WSW 1018,1 60 0 0,0
16.08.2018 01:00:00 18,2 15,1 16,3 11 6 21 12 WSW 1018,4 60 0 0,0
16.08.2018 00:00:00 18,5 15,4 16,9 9 5 23 12 WSW 1018,7 60 0 0,0
15.08.2018 23:00:00 18,6 14,9 15,4 10 6 20 11 WSW 1019,0 60 0 0,0
15.08.2018 22:00:00 18,0 14,1 15,5 7 4 19 10 WSW 1019,0 20 0 0,0
15.08.2018 21:00:00 18,7 14,2 17,7 13 7 24 13 WSW 1019,0 60 42 0,0
15.08.2018 20:00:00 19,8 13,9 19,7 14 8 28 15 SW 1019,1 58 60 0,0
15.08.2018 19:00:00 19,7 14,5 20,7 20 11 34 19 SW 1019,4 39 60 0,0
15.08.2018 18:00:00 19,9 15,3 22,0 21 12 36 19 WSW 1019,9 33 56 0,0
15.08.2018 17:00:00 19,9 15,3 21,6 19 10 38 21 WSW 1020,2 20 28 0,0
15.08.2018 16:00:00 19,9 15,3 22,5 23 12 39 21 WSW 1020,4 19 53 0,0
15.08.2018 15:00:00 20,5 15,3 24,0 22 12 35 19 SW 1020,5 43 38 0,0
15.08.2018 14:00:00 20,1 14,9 21,2 18 10 39 21 WSW 1020,5 48 1 0,0
15.08.2018 13:00:00 19,2 15,7 20,4 18 10 37 20 W 1020,5 46 0 0,0
15.08.2018 12:00:00 18,9 15,4 19,1 16 8 29 16 WSW 1020,6 30 0 0,0
15.08.2018 11:00:00 18,3 15,4 18,5 15 8 29 16 WSW 1020,7 19 0 0,0
15.08.2018 10:00:00 18,3 15,2 18,1 16 9 28 15 WSW 1020,4 39 0 0,0
15.08.2018 09:00:00 18,3 14,8 17,8 16 9 29 16 WSW 1020,0 20 0 0,0
15.08.2018 08:00:00 18,4 15,8 17,5 15 8 29 16 W 1019,7 15 0 0,0
15.08.2018 07:00:00 18,4 14,7 17,4 8 4 24 13 W 1019,2 41 0 0,0
15.08.2018 06:00:00 18,5 14,4 17,4 14 8 25 14 WNW 1019,3 38 0 0,0
15.08.2018 05:00:00 18,4 16,9 18,1 14 7 28 15 W 1019,2 11 0 0,0
15.08.2018 04:00:00 18,3 17,0 17,9 14 8 29 16 WSW 1019,2 12 0 0,0
15.08.2018 03:00:00 18,2 16,5 17,9 16 9 33 18 WSW 1019,4 14 0 0,0
15.08.2018 02:00:00 18,2 16,5 17,7 14 8 27 15 WSW 1019,6 16 0 0,0
15.08.2018 01:00:00 18,3 16,8 17,5 14 7 29 16 WSW 1019,6 17 0 0,0
15.08.2018 00:00:00 18,3 16,8 17,2 14 8 24 13 WSW 1019,4 20 0 0,0
14.08.2018 23:00:00 18,2 16,4 17,2 13 7 28 15 WSW 1019,4 39 0 0,0
14.08.2018 22:00:00 18,3 16,3 17,3 13 7 34 18 WSW 1019,3 14 0 0,0
14.08.2018 21:00:00 18,7 15,8 17,8 15 8 39 21 W 1018,9 56 44 0,0
14.08.2018 20:00:00 19,4 15,1 19,2 20 11 36 19 W 1018,7 53 60 0,0
14.08.2018 19:00:00 20,0 15,6 20,8 19 11 40 22 W 1019,0 20 14 0,0
14.08.2018 18:00:00 19,8 15,2 21,6 21 11 38 20 W 1018,9 60 35 0,0
14.08.2018 17:00:00 20,1 15,7 23,6 22 12 37 20 W 1018,9 20 47 0,0
14.08.2018 16:00:00 19,9 15,9 22,7 21 12 38 21 W 1018,9 56 16 0,0
14.08.2018 15:00:00 19,9 14,9 23,5 22 12 35 19 W 1019,0 60 23 0,0
14.08.2018 14:00:00 20,0 13,9 25,1 21 11 33 18 W 1018,6 60 37 0,0
14.08.2018 13:00:00 20,2 13,4 28,5 13 7 31 17 W 1018,0 60 60 0,0
14.08.2018 12:00:00 19,9 14,3 24,2 12 7 25 13 WNW 1017,7 60 51 0,0
14.08.2018 11:00:00 19,6 14,2 22,9 16 8 30 16 NW 1017,3 37 56 0,0
14.08.2018 10:00:00 19,1 13,3 20,5 22 12 31 17 NNW 1016,6 18 56 0,0
14.08.2018 09:00:00 19,0 13,8 18,0 21 12 29 16 NW 1016,1 23 60 0,0
14.08.2018 08:00:00 18,1 13,8 15,3 15 8 23 12 NW 1015,3 33 52 0,0
14.08.2018 07:00:00 17,1 13,0 14,7 16 8 21 12 NW 1014,6 43 0 0,0
14.08.2018 06:00:00 17,7 14,2 15,2 12 6 21 11 NW 1013,9 47 0 0,0
14.08.2018 05:00:00 18,1 14,6 16,0 16 9 26 14 NW 1013,5 48 0 0,0
14.08.2018 04:00:00 18,3 16,1 16,1 13 7 19 10 NW 1013,1 33 0 0,0
14.08.2018 03:00:00 18,9 16,9 17,8 15 8 24 13 N 1012,3 17 0 0,0
14.08.2018 02:00:00 18,7 17,2 17,4 2 1 14 8 W 1012,2 12 0 0,0
14.08.2018 01:00:00 18,2 16,9 17,0 6 4 22 12 WSW 1011,9 13 0 0,0
14.08.2018 00:00:00 18,2 16,5 17,3 13 7 29 16 W 1011,6 14 0 0,0
13.08.2018 23:00:00 18,4 16,4 17,7 13 7 28 15 W 1011,2 16 0 0,0
13.08.2018 22:00:00 18,4 15,8 17,3 16 9 31 17 W 1010,9 19 0 0,0
13.08.2018 21:00:00 18,7 15,6 18,3 16 9 35 19 W 1010,5 44 0 0,0
13.08.2018 20:00:00 18,8 15,3 19,0 19 10 40 21 W 1010,0 30 41 0,0
13.08.2018 19:00:00 19,8 15,2 20,5 21 11 40 22 W 1009,5 28 42 0,0
13.08.2018 18:00:00 20,0 16,4 20,6 22 12 41 22 WSW 1009,1 19 28 0,0
13.08.2018 17:00:00 19,9 16,5 22,4 21 12 42 23 WSW 1008,9 20 30 0,0
13.08.2018 16:00:00 19,7 16,0 22,1 20 11 40 22 W 1008,8 24 24 0,0
13.08.2018 15:00:00 19,8 15,9 22,6 22 12 38 20 W 1008,7 29 40 0,0
13.08.2018 14:00:00 19,6 15,9 22,0 21 11 40 22 W 1008,1 36 34 0,0
13.08.2018 13:00:00 19,3 16,1 19,6 23 12 37 20 W 1008,0 49 28 0,0
13.08.2018 12:00:00 18,9 16,3 18,7 17 9 31 17 W 1007,7 40 10 0,0
13.08.2018 11:00:00 18,5 16,5 18,0 14 8 29 15 W 1007,3 60 9 0,0
13.08.2018 10:00:00 17,8 16,1 16,5 15 8 27 15 W 1007,0 16 1 0,2
13.08.2018 09:00:00 17,4 15,7 16,5 9 5 27 15 SW 1006,9 4,9 3 0,6
13.08.2018 08:00:00 17,7 15,9 15,6 8 5 19 10 W 1006,5 58 14 0,0
13.08.2018 07:00:00 16,9 15,6 15,2 6 3 12 7 WSW 1006,6 41 0 0,0
13.08.2018 06:00:00 17,5 16,5 16,6 8 4 25 13 W 1006,1 18 0 0,8
13.08.2018 05:00:00 18,0 17,0 17,2 11 6 22 12 W 1006,0 12 0 0,6
13.08.2018 04:00:00 18,0 16,8 17,1 6 3 15 8 WSW 1006,3 45 0 0,4
13.08.2018 03:00:00 18,6 16,4 16,2 10 6 19 11 WSW 1006,8 20 0 0,2
13.08.2018 02:00:00 17,9 16,6 16,1 3 2 9 5 SSW 1007,3 39 0 0,0
13.08.2018 01:00:00 18,0 16,5 16,5 5 3 9 5 SSE 1007,9 20 0 0,0
13.08.2018 00:00:00 18,1 17,1 17,3 6 3 12 6 SE 1008,5 18 0 0,0
12.08.2018 23:00:00 18,2 17,0 16,9 6 3 11 6 SSE 1008,4 30 0 0,0
12.08.2018 22:00:00 18,8 16,9 16,9 3 2 6 3 ESE 1008,3 20 0 0,0
12.08.2018 21:00:00 19,0 16,4 17,5 5 3 9 5 E 1008,8 49 0 0,2
12.08.2018 20:00:00 20,6 15,2 19,0 3 2 8 4 S 1009,3 42 0 0,2
12.08.2018 19:00:00 20,6 14,7 19,6 7 4 28 15 NW 1009,8 54 0 0,0
12.08.2018 18:00:00 21,8 14,7 23,1 19 10 30 16 WNW 1010,0 46 4 0,0
12.08.2018 17:00:00 25,1 14,2 26,7 13 7 25 14 SW 1010,5 60 9 0,0
12.08.2018 16:00:00 24,4 14,5 25,2 13 7 21 11 SW 1011,1 51 11 0,0
12.08.2018 15:00:00 23,7 14,9 25,3 15 8 26 14 WSW 1011,8 60 0 0,0
12.08.2018 14:00:00 25,3 13,8 27,4 10 6 31 17 SSW 1012,2 35 8 0,0
12.08.2018 13:00:00 25,3 12,5 29,3 13 7 38 21 S 1012,8 20 51 0,0
12.08.2018 12:00:00 23,8 13,1 25,6 17 9 28 15 SSE 1013,6 30 31 0,0
12.08.2018 11:00:00 22,4 12,6 24,9 16 9 30 16 S 1013,9 34 34 0,0
12.08.2018 10:00:00 21,0 12,4 19,4 14 8 25 14 S 1014,3 44 20 0,0
12.08.2018 09:00:00 19,1 11,6 18,9 13 7 24 13 SSE 1014,9 44 24 0,0
12.08.2018 08:00:00 18,5 11,3 16,2 12 6 21 11 SSE 1015,4 29 17 0,0
12.08.2018 07:00:00 18,1 11,2 16,5 13 7 25 13 SSE 1015,6 60 0 0,0
12.08.2018 06:00:00 18,1 11,6 16,2 13 7 21 11 SSE 1015,9 60 0 0,0
12.08.2018 05:00:00 17,3 13,2 16,2 9 5 14 8 SE 1016,5 60 0 0,0
12.08.2018 04:00:00 17,2 13,7 16,4 12 6 16 9 SE 1017,2 60 0 0,0
12.08.2018 03:00:00 17,1 14,2 16,5 13 7 19 11 ESE 1017,8 60 0 0,0
12.08.2018 02:00:00 17,5 14,4 16,4 8 4 15 8 SE 1018,7 60 0 0,0
12.08.2018 01:00:00 17,5 14,4 16,5 12 6 16 8 SE 1019,5 60 0 0,0
12.08.2018 00:00:00 17,9 14,4 16,7 7 4 9 5 SE 1020,2 60 0 0,0
11.08.2018 23:00:00 18,1 14,4 17,1 6 3 10 5 SE 1020,7 60 0 0,0
11.08.2018 22:00:00 18,8 13,6 16,9 5 3 8 4 SSE 1021,2 57 0 0,0
11.08.2018 21:00:00 19,0 12,7 17,9 2 1 8 4 WNW 1021,3 60 10 0,0
11.08.2018 20:00:00 19,3 12,3 20,4 4 2 10 5 SW 1021,7 60 33 0,0
11.08.2018 19:00:00 19,6 11,9 21,8 5 3 16 9 W 1022,2 60 50 0,0
11.08.2018 18:00:00 20,2 11,4 24,6 9 5 17 9 WSW 1022,5 48 60 0,0
11.08.2018 17:00:00 19,8 11,3 26,4 10 5 21 11 WSW 1023,1 35 58 0,0
11.08.2018 16:00:00 19,7 9,0 28,4 10 6 22 12 W 1023,6 42 60 0,0
11.08.2018 15:00:00 19,5 9,1 26,6 10 5 24 13 W 1024,1 56 58 0,0
11.08.2018 14:00:00 18,9 10,2 27,2 13 7 26 14 W 1024,2 34 60 0,0
11.08.2018 13:00:00 18,9 9,7 21,8 11 6 28 15 W 1024,3 42 56 0,0
11.08.2018 12:00:00 18,2 10,6 22,1 13 7 24 13 SW 1024,3 38 52 0,0
11.08.2018 11:00:00 18,2 10,1 19,8 7 4 19 11 W 1024,3 59 41 0,0
11.08.2018 10:00:00 18,2 9,5 20,7 3 2 9 5 NNE 1024,5 60 60 0,0
11.08.2018 09:00:00 15,3 12,1 14,0 4 2 8 4 SE 1024,2 34 60 0,0
11.08.2018 08:00:00 12,4 11,3 6,4 5 3 8 4 SSE 1023,9 18 56 0,0
11.08.2018 07:00:00 10,6 10,0 5,1 4 2 6 4 SSE 1023,4 33 0 0,0
11.08.2018 06:00:00 11,4 10,3 5,9 4 2 6 3 SSE 1022,9 55 0 0,0
11.08.2018 05:00:00 12,9 10,3 7,6 0 0 16 9 N 1022,6 60 0 0,0
11.08.2018 04:00:00 15,9 11,3 12,4 8 5 16 9 WNW 1022,4 60 0 0,0
11.08.2018 03:00:00 16,7 11,4 14,3 9 5 23 12 WNW 1022,2 60 0 0,0
11.08.2018 02:00:00 17,0 11,3 14,7 16 8 30 16 W 1022,1 60 0 0,0
11.08.2018 01:00:00 17,0 10,6 14,6 16 9 45 24 WNW 1021,9 60 0 0,0
11.08.2018 00:00:00 17,2 14,3 14,0 22 12 47 25 W 1021,6 20 0 0,2
10.08.2018 23:00:00 16,2 12,4 12,5 18 10 33 18 W 1021,2 59 0 0,0
10.08.2018 22:00:00 14,8 12,7 13,8 27 15 48 26 WNW 1021,2 3,4 0 0,8
10.08.2018 21:00:00 17,7 14,2 15,4 25 13 55 30 W 1020,5 20 13 0,2

tt = Température de l'air
td = dewpoint
tt 5cm = Température de l'air 5cm
ff = Vitesse du vent
fx = gusts
dd = Direction du vent
ppp = reduced air pressure
vv = visibility
sd = Ensoleillement
rr = Quantités de précipitations

stations d'obs. à proximité